Orbital Elements at Epoch 2459200.5 (2020-Dec-17.0) TDB
Reference: JPL 21 (heliocentric ecliptic J2000)
Element | Value | Uncertainty (1-sigma) | Units |
e | .06337585805391895 | 3.8279e-08 | |
a | 2.647815374315388 | 1.4747e-08 | au |
q | 2.480007802999792 | 1.0839e-07 | au |
i | 2.425901653416489 | 4.4742e-06 | deg |
node | 225.6024952231371 | 0.0001008 | deg |
peri | 205.9307749152985 | 0.00010906 | deg |
M | 304.5887989649103 | 4.304e-05 | deg |
tp | 2459442.728387979995 (2021-Aug-16.22838798) | 0.00018897 | TDB |
period | 1573.729102489164 4.31 | 1.3147e-05 3.599e-08 | d yr |
n | .2287560161596991 | 1.9111e-09 | deg/d |
Q | 2.815622945630984 | 1.5682e-08 | au |
|
| | Orbit Determination Parameters
Additional Information
|